Satellite: NO-45
Catalog number: 26932
Epoch time: 06362.86384993
Element set: 490
Inclination: 067.0541 deg
RA of node: 225.9663 deg
Eccentricity: 0.0003358
Arg of perigee: 253.4310 deg
Mean anomaly: 106.6423 deg
Mean motion: 14.29545413 rev/day
Decay rate: -3.3e-07 rev/day^2
Epoch rev: 27379
Checksum: 310
Satellite: UWE-1
Catalog number: 28892
Epoch time: 06362.43288824
Element set: 639
Inclination: 098.1466 deg
RA of node: 257.2931 deg
Eccentricity: 0.0016538
Arg of perigee: 287.3756 deg
Mean anomaly: 072.5631 deg
Mean motion: 14.59446732 rev/day
Decay rate: 2.77e-06 rev/day^2
Epoch rev: 6230
Checksum: 334
Satellite: CO-58
Catalog number: 28895
Epoch time: 06361.66316321
Element set: 620
Inclination: 098.1479 deg
RA of node: 256.6855 deg
Eccentricity: 0.0016866
Arg of perigee: 289.5547 deg
Mean anomaly: 070.3816 deg
Mean motion: 14.59495990 rev/day
Decay rate: 2.22e-06 rev/day^2
Epoch rev: 6207
Checksum: 350
Satellite: NCUBE2
Catalog number: 28897
Epoch time: 06361.68827195
Element set: 0163
Inclination: 098.1469 deg
RA of node: 256.6789 deg
Eccentricity: 0.0016578
Arg of perigee: 291.9909 deg
Mean anomaly: 067.9512 deg
Mean motion: 14.59654493 rev/day
Decay rate: 2.16e-06 rev/day^2
Epoch rev: 05435
Checksum: 369
Satellite: NMARS
Catalog number: 29662
Epoch time: 06362.91662814
Element set: 13
Inclination: 051.6436 deg
RA of node: 263.1823 deg
Eccentricity: 0.0014932
Arg of perigee: 050.0023 deg
Mean anomaly: 310.2247 deg
Mean motion: 15.83142814 rev/day
Decay rate: 4.2681e-04 rev/day^2
Epoch rev: 114
Checksum: 252
